Terminal Aerodrome Forecast
Issued by NWS Wakefield, VA

Home | Current Version | Previous Version | Text Only | Print | Product List | Glossary On
Versions: 1 2 3 4 5 6 7 8 9 10 11 12 13 14 15 16
040
FTUS41 KAKQ 091136
TAFRIC
TAF
KRIC 091136Z 0912/1012 26007KT P6SM SCT006 OVC040
      TEMPO 0912/0914 4SM BR BKN006
     FM091600 27012G18KT P6SM BKN050
     FM100000 27008KT P6SM OVC050=

USA.gov is the U.S. government's official web portal to all federal, state and local government web resources and services.